DW0807 Weather Reports


Display with metric or nautical units.
time (UTC)temp
F
wind
direction
speed
MPH
gust
MPH
rain 1hr
in
rain 24hr
in
rain mn
in
humidity
%
barometer
mb
20210928003758 85 181 0.0 0.0 0.00 0.00 0.00 20 1005.0
20210928003300 85 181 0.0 0.0 0.00 0.00 0.00 20 1005.1
20210928002757 86 181 0.0 0.0 0.00 0.00 0.00 19 1005.1
20210928002258 86 181 0.0 0.0 0.00 0.00 0.00 19 1005.1
20210928001758 87 181 0.0 0.0 0.00 0.00 0.00 19 1005.2
20210928001257 87 181 0.0 0.0 0.00 0.00 0.00 19 1005.2
20210928000757 87 181 0.0 0.0 0.00 0.00 0.00 19 1005.1
20210928000257 87 181 0.0 0.0 0.00 0.00 0.00 19 1005.2
20210927235757 87 181 0.0 0.0 0.00 0.00 0.00 19 1005.3
20210927235301 88 181 0.0 3.0 0.00 0.00 0.00 18 1005.3
20210927234757 88 182 2.0 3.0 0.00 0.00 0.00 18 1005.3
20210927234258 88 182 0.0 3.0 0.00 0.00 0.00 18 1005.3
20210927233757 88 182 2.0 4.0 0.00 0.00 0.00 18 1005.2
20210927233257 88 182 2.0 5.0 0.00 0.00 0.00 18 1005.3
20210927232757 89 176 3.0 5.0 0.00 0.00 0.00 18 1005.2
20210927232258 88 171 0.0 0.0 0.00 0.00 0.00 18 1005.5
20210927231758 88 171 0.0 5.0 0.00 0.00 0.00 18 1005.5
20210927231257 88 171 4.0 6.0 0.00 0.00 0.00 18 1005.4
20210927230804 88 167 0.0 3.0 0.00 0.00 0.00 19 1005.3
20210927230303 88 165 1.0 7.0 0.00 0.00 0.00 18 1005.3
20210927225803 88 177 4.0 9.0 0.00 0.00 0.00 18 1005.2
20210927225258 88 162 4.0 6.0 0.00 0.00 0.00 18 1005.3
20210927224801 88 196 4.0 6.0 0.00 0.00 0.00 18 1005.2
20210927224257 88 227 4.0 8.0 0.00 0.00 0.00 18 1005.2
20210927223758 89 204 4.0 6.0 0.00 0.00 0.00 18 1005.3
20210927223257 88 124 0.0 3.0 0.00 0.00 0.00 19 1005.2
20210927222758 89 125 2.0 4.0 0.00 0.00 0.00 18 1005.1
20210927222257 89 190 3.0 7.0 0.00 0.00 0.00 18 1005.2
20210927221757 89 181 3.0 8.0 0.00 0.00 0.00 18 1005.3
20210927221257 89 243 3.0 10.0 0.00 0.00 0.00 18 1005.2
20210927220800 89 227 5.0 10.0 0.00 0.00 0.00 18 1005.3
20210927220257 89 273 3.0 9.0 0.00 0.00 0.00 18 1005.3
20210927215800 89 251 2.0 8.0 0.00 0.00 0.00 18 1005.3
20210927215257 89 194 6.0 9.0 0.00 0.00 0.00 18 1005.3
20210927214758 89 225 7.0 8.0 0.00 0.00 0.00 19 1005.2
20210927214257 89 176 0.0 4.0 0.00 0.00 0.00 19 1005.2
20210927213801 89 176 3.0 9.0 0.00 0.00 0.00 18 1005.2
20210927213257 89 229 5.0 11.0 0.00 0.00 0.00 18 1005.3
20210927212758 89 234 10.0 10.0 0.00 0.00 0.00 18 1005.3
20210927212257 89 150 2.0 8.0 0.00 0.00 0.00 19 1005.4
20210927211758 89 217 0.0 8.0 0.00 0.00 0.00 18 1005.4
20210927211258 89 250 8.0 9.0 0.00 0.00 0.00 18 1005.3
20210927210758 89 252 4.0 10.0 0.00 0.00 0.00 18 1005.3
20210927210257 89 235 0.0 0.0 0.00 0.00 0.00 19 1005.3
20210927205757 88 259 0.0 9.0 0.00 0.00 0.00 18 1005.3
20210927205258 88 197 2.0 7.0 0.00 0.00 0.00 18 1005.4
20210927204757 88 248 1.0 9.0 0.00 0.00 0.00 18 1005.5
20210927204257 87 230 2.0 5.0 0.00 0.00 0.00 19 1005.5
20210927203757 87 268 2.0 10.0 0.00 0.00 0.00 19 1005.5
20210927203257 88 238 5.0 9.0 0.00 0.00 0.00 19 1005.5
20210927202757 88 305 3.0 8.0 0.00 0.00 0.00 18 1005.5
20210927202257 88 248 0.0 7.0 0.00 0.00 0.00 20 1005.4
20210927201757 88 275 6.0 9.0 0.00 0.00 0.00 19 1005.4
20210927201303 88 245 0.0 9.0 0.00 0.00 0.00 19 1005.4
20210927200758 88 221 4.0 7.0 0.00 0.00 0.00 19 1005.5
20210927200301 88 231 0.0 0.0 0.00 0.00 0.00 19 1005.4
20210927195801 87 232 0.0 8.0 0.00 0.00 0.00 19 1005.7
20210927195257 88 265 3.0 11.0 0.00 0.00 0.00 19 1005.6
20210927194801 87 209 5.0 5.0 0.00 0.00 0.00 20 1005.6
20210927194301 87 191 2.0 8.0 0.00 0.00 0.00 20 1005.6
20210927193757 87 228 0.0 7.0 0.00 0.00 0.00 20 1005.6
20210927193300 87 201 1.0 8.0 0.00 0.00 0.00 20 1005.6
20210927192757 86 218 6.0 6.0 0.00 0.00 0.00 20 1005.8
20210927192257 86 290 3.0 6.0 0.00 0.00 0.00 20 1005.7
20210927191758 86 254 3.0 8.0 0.00 0.00 0.00 20 1005.7
20210927191257 86 245 1.0 8.0 0.00 0.00 0.00 20 1005.6
20210927190757 86 232 3.0 8.0 0.00 0.00 0.00 20 1005.8
20210927190257 86 245 2.0 7.0 0.00 0.00 0.00 21 1005.8
20210927185757 86 215 0.0 7.0 0.00 0.00 0.00 22 1005.8
20210927185257 86 229 6.0 9.0 0.00 0.00 0.00 21 1005.7
20210927184757 86 238 0.0 9.0 0.00 0.00 0.00 21 1005.7
20210927184257 85 192 4.0 5.0 0.00 0.00 0.00 22 1005.7
20210927183758 85 194 3.0 6.0 0.00 0.00 0.00 23 1005.7
20210927183258 84 194 3.0 3.0 0.00 0.00 0.00 23 1005.7
20210927182757 84 246 0.0 0.0 0.00 0.00 0.00 22 1005.8
20210927182257 83 241 1.0 8.0 0.00 0.00 0.00 23 1005.8
20210927181757 83 213 3.0 6.0 0.00 0.00 0.00 23 1005.7
20210927181257 83 209 4.0 10.0 0.00 0.00 0.00 24 1005.6
20210927180757 83 282 1.0 6.0 0.00 0.00 0.00 23 1005.6
20210927180300 82 231 5.0 8.0 0.00 0.00 0.00 24 1005.7
20210927175757 82 205 5.0 9.0 0.00 0.00 0.00 25 1005.8
20210927175301 81 234 6.0 11.0 0.00 0.00 0.00 25 1005.7
20210927174757 81 241 2.0 10.0 0.00 0.00 0.00 25 1005.7
20210927174257 81 212 6.0 9.0 0.00 0.00 0.00 27 1005.6
20210927173806 81 208 4.0 9.0 0.00 0.00 0.00 26 1005.6
20210927173257 80 221 5.0 10.0 0.00 0.00 0.00 26 1005.6
20210927172800 80 207 5.0 8.0 0.00 0.00 0.00 27 1005.7
20210927172257 79 229 5.0 8.0 0.00 0.00 0.00 27 1005.7
20210927171757 79 226 5.0 9.0 0.00 0.00 0.00 28 1005.6
20210927171301 79 215 1.0 7.0 0.00 0.00 0.00 29 1005.7
20210927170757 78 248 5.0 8.0 0.00 0.00 0.00 28 1005.7
20210927170258 78 215 4.0 7.0 0.00 0.00 0.00 29 1005.6
20210927165757 77 219 3.0 6.0 0.00 0.00 0.00 29 1005.6
20210927165258 77 213 4.0 6.0 0.00 0.00 0.00 30 1005.5
20210927164757 76 205 6.0 7.0 0.00 0.00 0.00 31 1005.6
20210927164257 75 220 5.0 7.0 0.00 0.00 0.00 31 1005.5
20210927163803 75 211 4.0 7.0 0.00 0.00 0.00 32 1005.4
20210927163257 74 223 4.0 6.0 0.00 0.00 0.00 32 1005.4
20210927162757 74 223 3.0 6.0 0.00 0.00 0.00 32 1005.4
20210927162301 73 201 6.0 6.0 0.00 0.00 0.00 33 1005.4
20210927161801 73 204 5.0 7.0 0.00 0.00 0.00 34 1005.3
20210927161257 72 219 3.0 6.0 0.00 0.00 0.00 34 1005.3
20210927160757 71 205 4.0 7.0 0.00 0.00 0.00 36 1005.3
20210927160257 70 205 4.0 6.0 0.00 0.00 0.00 36 1005.3
20210927155757 69 220 5.0 6.0 0.00 0.00 0.00 37 1005.3
20210927155257 69 232 4.0 6.0 0.00 0.00 0.00 38 1005.3
20210927154757 68 230 4.0 5.0 0.00 0.00 0.00 38 1005.2
20210927154257 68 219 4.0 6.0 0.00 0.00 0.00 38 1005.2
20210927153801 67 232 3.0 6.0 0.00 0.00 0.00 39 1005.2
20210927153257 67 204 2.0 6.0 0.00 0.00 0.00 40 1005.2
20210927152757 66 198 5.0 6.0 0.00 0.00 0.00 41 1005.2
20210927152258 65 201 4.0 5.0 0.00 0.00 0.00 41 1005.2
20210927151758 64 201 4.0 5.0 0.00 0.00 0.00 42 1005.3
20210927151258 63 202 4.0 5.0 0.00 0.00 0.00 43 1005.2
20210927150758 62 200 2.0 4.0 0.00 0.00 0.00 46 1005.2
20210927150258 61 200 1.0 4.0 0.00 0.00 0.00 47 1005.1
20210927145804 60 200 3.0 5.0 0.00 0.00 0.00 48 1005.1
20210927145257 59 231 0.0 0.0 0.00 0.00 0.00 50 1005.1
20210927144803 58 231 0.0 0.0 0.00 0.00 0.00 51 1005.2
20210927144257 58 233 0.0 0.0 0.00 0.00 0.00 52 1005.1
20210927143801 57 233 0.0 0.0 0.00 0.00 0.00 52 1005.1
20210927143257 57 233 0.0 0.0 0.00 0.00 0.00 53 1005.2
20210927142758 56 233 0.0 0.0 0.00 0.00 0.00 52 1005.2
20210927142257 56 234 0.0 0.0 0.00 0.00 0.00 53 1005.1
20210927141757 55 234 0.0 0.0 0.00 0.00 0.00 53 1005.1
20210927141257 55 233 0.0 0.0 0.00 0.00 0.00 53 1005.1
20210927140758 55 234 0.0 0.0 0.00 0.00 0.00 53 1005.1
20210927140257 54 233 0.0 0.0 0.00 0.00 0.00 55 1005.2
20210927135801 54 234 0.0 0.0 0.00 0.00 0.00 58 1005.1
20210927135257 53 234 0.0 0.0 0.00 0.00 0.00 58 1005.2
20210927134758 53 234 0.0 0.0 0.00 0.00 0.00 57 1005.2
20210927134258 52 234 0.0 0.0 0.00 0.00 0.00 57 1005.2
20210927133801 52 234 0.0 0.0 0.00 0.00 0.00 57 1005.3
20210927133303 52 234 0.0 0.0 0.00 0.00 0.00 57 1005.4
20210927132757 52 234 0.0 0.0 0.00 0.00 0.00 56 1005.3
20210927132257 52 234 0.0 0.0 0.00 0.00 0.00 55 1005.3
20210927131757 53 234 0.0 0.0 0.00 0.00 0.00 54 1005.4
20210927131257 53 234 0.0 0.0 0.00 0.00 0.00 53 1005.5
20210927130801 54 234 0.0 0.0 0.00 0.00 0.00 53 1005.6
20210927130257 54 234 0.0 3.0 0.00 0.00 0.00 52 1005.6
20210927125801 54 227 3.0 4.0 0.00 0.00 0.00 53 1005.5
20210927125300 54 194 0.0 0.0 0.00 0.00 0.00 54 1005.4
20210927090257 67 264 1.0 2.0 0.00 0.00 0.00 38 1005.3
20210927085803 67 263 0.0 2.0 0.00 0.00 0.00 38 1005.3
20210927085257 66 263 1.0 2.0 0.00 0.00 0.00 38 1005.4
20210927084757 66 263 0.0 3.0 0.00 0.00 0.00 39 1005.4
20210927084257 66 263 1.0 2.0 0.00 0.00 0.00 39 1005.4
20210927083757 66 263 1.0 3.0 0.00 0.00 0.00 39 1005.5
20210927083302 66 263 1.0 3.0 0.00 0.00 0.00 40 1005.4
20210927082758 66 264 3.0 4.0 0.00 0.00 0.00 40 1005.5
20210927082258 66 197 2.0 4.0 0.00 0.00 0.00 40 1005.5
20210927081757 66 153 1.0 4.0 0.00 0.00 0.00 40 1005.4
20210927081258 65 150 0.0 0.0 0.00 0.00 0.00 40 1005.5
20210927080757 65 150 0.0 3.0 0.00 0.00 0.00 40 1005.5
20210927080258 65 150 2.0 4.0 0.00 0.00 0.00 41 1005.5
20210927075757 65 138 3.0 6.0 0.00 0.00 0.00 42 1005.5
20210927075257 64 143 0.0 13.0 0.00 0.00 0.00 42 1005.5
20210927074757 64 128 0.0 1.0 0.00 0.00 0.00 42 1005.5
20210927074257 64 128 0.0 0.0 0.00 0.00 0.00 42 1005.6
20210927073757 64 128 0.0 0.0 0.00 0.00 0.00 42 1005.5
20210927073257 64 128 0.0 0.0 0.00 0.00 0.00 42 1005.5
20210927072804 64 128 0.0 0.0 0.00 0.00 0.00 42 1005.5
20210927072257 64 128 0.0 0.0 0.00 0.00 0.00 42 1005.5
20210927071804 64 128 0.0 0.0 0.00 0.00 0.00 42 1005.6
20210927071304 64 128 0.0 0.0 0.00 0.00 0.00 42 1005.5
20210927070757 64 128 0.0 0.0 0.00 0.00 0.00 42 1005.5
20210927070257 64 128 0.0 0.0 0.00 0.00 0.00 42 1005.5
20210927065757 64 128 0.0 0.0 0.00 0.00 0.00 42 1005.6
20210927065257 64 128 0.0 0.0 0.00 0.00 0.00 42 1005.6
20210927064757 65 128 0.0 0.0 0.00 0.00 0.00 42 1005.6
20210927064257 65 128 0.0 0.0 0.00 0.00 0.00 42 1005.7
20210927063757 65 128 0.0 0.0 0.00 0.00 0.00 41 1005.8
20210927063303 65 128 0.0 0.0 0.00 0.00 0.00 41 1005.7
20210927062757 65 128 0.0 0.0 0.00 0.00 0.00 41 1005.8
20210927062257 65 128 0.0 0.0 0.00 0.00 0.00 41 1005.8
20210927061757 65 128 0.0 0.0 0.00 0.00 0.00 41 1005.9
20210927061301 65 128 0.0 1.0 0.00 0.00 0.00 41 1005.9
20210927060757 65 128 0.0 0.0 0.00 0.00 0.00 41 1006.0
20210927060257 65 126 0.0 3.0 0.00 0.00 0.00 41 1006.0
20210927055757 65 126 2.0 3.0 0.00 0.00 0.00 41 1006.1
20210927055258 65 126 0.0 4.0 0.00 0.00 0.00 41 1006.2
20210927054757 66 113 3.0 3.0 0.00 0.00 0.00 41 1006.2
20210927054257 66 108 0.0 2.0 0.00 0.00 0.00 40 1006.0
20210927053757 66 106 0.0 2.0 0.00 0.00 0.00 40 1006.1
20210927053257 66 106 0.0 0.0 0.00 0.00 0.00 40 1006.0
20210927052757 66 106 0.0 3.0 0.00 0.00 0.00 40 1006.1
20210927052257 66 100 0.0 0.0 0.00 0.00 0.00 40 1006.0
20210927051757 66 97 0.0 3.0 0.00 0.00 0.00 41 1006.2
20210927051257 66 96 0.0 1.0 0.00 0.00 0.00 41 1006.2
20210927050757 66 96 0.0 0.0 0.00 0.00 0.00 41 1006.1
20210927050257 66 96 0.0 1.0 0.00 0.00 0.00 41 1006.2
20210927045757 66 96 0.0 0.0 0.00 0.00 0.00 41 1006.2
20210927045257 66 96 0.0 0.0 0.00 0.00 0.00 41 1006.3
20210927044757 66 96 0.0 0.0 0.00 0.00 0.00 41 1006.2
20210927044257 66 96 0.0 0.0 0.00 0.00 0.00 41 1006.3
20210927043758 66 96 0.0 0.0 0.00 0.00 0.00 41 1006.4
20210927043257 66 95 0.0 0.0 0.00 0.00 0.00 41 1006.4
20210927042757 66 95 0.0 0.0 0.00 0.00 0.00 41 1006.4
20210927042257 66 95 0.0 0.0 0.00 0.00 0.00 41 1006.4
20210927041757 65 95 0.0 0.0 0.00 0.00 0.00 41 1006.4
20210927041257 65 95 0.0 0.0 0.00 0.00 0.00 41 1006.5
20210927040757 65 95 0.0 0.0 0.00 0.00 0.00 41 1006.5
20210927040257 65 95 0.0 3.0 0.00 0.00 0.00 42 1006.4
20210927035758 65 14 0.0 0.0 0.00 0.00 0.00 42 1006.4
20210927035306 65 14 0.0 0.0 0.00 0.00 0.00 42 1006.5
20210927034757 65 14 0.0 2.0 0.00 0.00 0.00 42 1006.6
20210927034257 65 292 0.0 0.0 0.00 0.00 0.00 42 1006.6
20210927033758 65 292 0.0 0.0 0.00 0.00 0.00 42 1006.6
20210927033303 65 292 0.0 0.0 0.00 0.00 0.00 42 1006.6
20210927032757 66 292 0.0 0.0 0.00 0.00 0.00 42 1006.6
20210927032257 66 292 0.0 0.0 0.00 0.00 0.00 41 1006.6
20210927031758 66 292 0.0 0.0 0.00 0.00 0.00 41 1006.6
20210927031258 66 292 0.0 2.0 0.00 0.00 0.00 40 1006.6
20210927030758 67 292 2.0 4.0 0.00 0.00 0.00 41 1006.6
20210927030257 67 326 0.0 0.0 0.00 0.00 0.00 40 1006.6
20210927025757 67 326 0.0 0.0 0.00 0.00 0.00 40 1006.6
20210927025257 67 326 0.0 0.0 0.00 0.00 0.00 40 1006.6
20210927024757 67 327 0.0 0.0 0.00 0.00 0.00 40 1006.5
20210927024257 68 327 0.0 0.0 0.00 0.00 0.00 39 1006.5
20210927023758 68 327 0.0 0.0 0.00 0.00 0.00 38 1006.6
20210927023257 68 327 0.0 0.0 0.00 0.00 0.00 38 1006.5
20210927022801 69 327 0.0 0.0 0.00 0.00 0.00 38 1006.4
20210927022257 69 327 0.0 0.0 0.00 0.00 0.00 38 1006.3
20210927021803 69 327 0.0 0.0 0.00 0.00 0.00 38 1006.3
20210927021257 70 327 0.0 0.0 0.00 0.00 0.00 36 1006.3
20210927020801 70 327 0.0 0.0 0.00 0.00 0.00 34 1006.2
20210927020301 71 327 0.0 0.0 0.00 0.00 0.00 36 1006.2
20210927015757 71 327 0.0 0.0 0.00 0.00 0.00 35 1006.2
20210927015305 72 327 0.0 0.0 0.00 0.00 0.00 34 1006.2
20210927014757 73 327 0.0 0.0 0.00 0.00 0.00 32 1006.1
20210927014257 74 327 0.0 0.0 0.00 0.00 0.00 33 1006.1
20210927013757 74 328 0.0 0.0 0.00 0.00 0.00 32 1006.0
20210927013303 75 328 0.0 0.0 0.00 0.00 0.00 32 1005.9
20210927012801 76 328 0.0 0.0 0.00 0.00 0.00 31 1005.9
20210927012257 77 328 0.0 0.0 0.00 0.00 0.00 30 1005.9
20210927011757 77 328 0.0 0.0 0.00 0.00 0.00 30 1005.8
20210927011257 78 327 0.0 0.0 0.00 0.00 0.00 30 1005.6
20210927010757 78 327 0.0 0.0 0.00 0.00 0.00 30 1005.6
20210927010303 79 327 0.0 0.0 0.00 0.00 0.00 29 1005.5
20210927005757 79 327 0.0 1.0 0.00 0.00 0.00 29 1005.4
20210927005301 80 325 0.0 0.0 0.00 0.00 0.00 29 1005.4
20210927004757 81 313 0.0 1.0 0.00 0.00 0.00 28 1005.4
20210927004257 81 294 0.0 1.0 0.00 0.00 0.00 28 1005.3